Weather observations for the past three days for
Kansas City, Kansas City Downtown Airport
Metric (Imperial)
Date Time (cdt) Wind (kph) Vis. (km) Weather Sky Cond. Temperature (ºC) Relative Humidity Wind Chill (°C) Heat Index (°C) Pressure Precipitation (cm)
Air Dwpt 6 hour altimeter (cm) sea level (mb) 1 hr 3 hr 6 hr
Max. Min.
21 12:54 SW 17 16.09 Mostly Cloudy FEW045 FEW070 BKN095 30.6 23.3 31.1 25.6 65% 35 76.53 1019.2 0.28 0.28
21 11:54 S 15 16.09 Mostly Cloudy SCT036 BKN049 30 21.7 61% 33 76.56 1019.8
21 10:54 SW 17 16.09 Partly Cloudy SCT033 30.6 22.2 61% 34 76.61 1020.2
21 09:54 S 17 16.09 Fair CLR 28.9 22.2 67% 32 76.63 1020.6
21 08:54 S 17 16.09 Fair CLR 27.8 21.7 69% 30 76.63 1020.8
21 07:54 S 15 16.09 A Few Clouds FEW085 27.2 21.1 69% 29 76.66 1021.1
21 06:54 S 11 16.09 Fair CLR 25.6 20.6 27.2 25 74% 27 76.66 1020.9
21 05:54 S 19 16.09 Partly Cloudy FEW060 SCT110 25.6 20 71% 27 76.63 1020.7
21 04:54 SE 7 16.09 Fair CLR 25 20 74% 26 76.63 1020.6
21 03:54 SE 9 16.09 Fair CLR 25.6 20 71% 27 76.63 1020.7
21 02:54 SE 7 16.09 Fair CLR 26.1 20 69% 27 76.66 1021.0
21 01:54 SE 9 16.09 Fair CLR 26.1 20 69% 27 76.68 1021.4
21 00:54 SE 13 16.09 Fair CLR 26.7 20 31.7 26.7 67% 28 76.68 1021.4
20 23:54 SE 15 16.09 Fair CLR 27.8 19.4 60% 29 76.66 1021.1
20 22:54 SE 13 16.09 Fair CLR 28.3 18.9 57% 30 76.63 1020.5
20 21:54 SE 11 16.09 Fair CLR 29.4 18.9 53% 31 76.61 1020.3
20 20:54 S 11 16.09 Fair CLR 30 18.3 49% 31 76.56 1019.8
20 19:54 S 15 16.09 Fair CLR 30.6 18.3 48% 32 76.56 1019.8
20 18:54 SE 19 16.09 Fair CLR 31.7 18.9 33.3 30.6 47% 33 76.56 1019.9
20 17:54 S 19 G 31 16.09 Mostly Cloudy BKN060 BKN075 32.8 18.9 44% 34 76.58 1020.2
20 16:54 S 17 G 30 16.09 A Few Clouds FEW070 31.7 18.9 47% 33 76.63 1020.8
20 15:54 S 11 16.09 A Few Clouds FEW060 FEW095 32.2 18.9 45% 34 76.68 1021.6
20 14:54 SE 7 16.09 Overcast BKN055 OVC080 32.2 18.9 45% 34 76.71 1022.0
20 13:54 SW 11 16.09 Mostly Cloudy FEW050 SCT065 BKN085 31.1 20.6 54% 34 76.76 1022.6
20 12:54 Vrbl 7 16.09 Mostly Cloudy SCT047 BKN060 31.1 20 32.2 23.3 52% 33 76.81 1023.1
20 11:54 S 13 16.09 Mostly Cloudy FEW040 SCT048 BKN060 30 21.1 59% 33 76.81 1023.2
20 10:54 SW 13 16.09 Fair CLR 29.4 20.6 59% 32 76.81 1023.3
20 09:54 SW 15 16.09 Fair CLR 28.3 20.6 63% 30 76.81 1023.3
20 08:54 SW 7 16.09 Fair CLR 26.1 21.1 74% 28 76.84 1023.4
20 07:54 S 7 16.09 Fair CLR 25 21.1 79% 26 76.81 1023.3
20 06:54 SE 9 14.48 Partly Cloudy FEW006 SCT100 23.3 21.7 24.4 23.3 91% 76.78 1023.1
20 05:54 E 7 12.87 Partly Cloudy SCT005 23.3 21.7 91% 76.76 1022.8
20 04:54 E 9 16.09 Mostly Cloudy BKN007 23.3 21.7 91% 76.73 1022.2
20 03:54 Vrbl 6 16.09 Overcast OVC007 23.9 22.2 90% 23 76.73 1022.3
20 02:54 NE 9 16.09 Mostly Cloudy BKN011 23.9 22.2 90% 23 76.71 1022.1
20 01:54 NE 9 16.09 Mostly Cloudy BKN011 23.9 22.2 90% 23 76.73 1022.2
20 00:54 E 6 16.09 Mostly Cloudy BKN011 24.4 22.2 25.6 24.4 88% 25 76.73 1022.3
19 23:54 E 7 16.09 Mostly Cloudy BKN010 BKN100 24.4 22.2 88% 25 76.71 1022.0
19 22:54 E 11 16.09 Mostly Cloudy FEW010 BKN110 24.4 22.2 88% 25 76.71 1021.8
19 21:54 E 9 16.09 Mostly Cloudy FEW013 BKN110 24.4 21.7 85% 25 76.66 1021.5
19 20:54 NE 11 16.09 Fair CLR 25 21.7 82% 26 76.63 1021.0
19 19:54 E 11 16.09 Fair CLR 25.6 21.7 79% 27 76.66 1021.1
19 18:54 NE 15 16.09 Mostly Cloudy BKN014 25.6 21.1 25.6 22.8 76% 27 76.61 1020.7
19 17:54 N 11 16.09 Overcast SCT012 BKN050 OVC110 24.4 21.7 85% 25 76.61 1020.7
19 16:54 NW 15 16.09 Light Rain BKN015 BKN038 OVC120 24.4 21.7 85% 25 76.63 1021.0
19 15:54 NW 13 16.09 Mostly Cloudy FEW014 BKN080 25 21.7 82% 26 76.63 1020.7
19 14:54 N 13 16.09 A Few Clouds FEW012 24.4 21.1 82% 25 76.61 1020.7
19 13:54 N 13 16.09 Mostly Cloudy SCT008 BKN043 BKN095 23.3 20.6 85% 76.66 1021.2
19 12:54 NW 15 16.09 Overcast OVC025 22.8 20.6 26.7 22.8 87% 76.68 1021.6 0.08
19 11:54 SW 13 16.09 Overcast BKN025 OVC090 26.1 21.1 74% 28 76.63 1020.7
19 10:54 S 20 G 33 16.09 Mostly Cloudy FEW065 SCT085 BKN110 26.7 21.1 71% 28 76.56 1019.8
19 09:54 Calm 16.09 Overcast OVC031 23.9 21.1 84% 24 76.56 1019.8 0.08
19 08:54 NW 6 16.09 Overcast OVC021 23.3 21.7 91% 76.56 1019.9
19 07:54 Calm 16.09 Overcast BKN023 OVC028 23.9 21.1 84% 24 76.5 1019.1 0.08
19 06:54 E 11 16.09 Overcast BKN034 OVC060 23.3 19.4 27.8 23.3 79% 76.43 1018.0
19 05:54 E 15 16.09 Mostly Cloudy SCT037 BKN060 BKN120 23.9 18.9 74% 25 76.38 1017.3
19 04:54 NE 13 16.09 Overcast OVC037 23.9 18.3 71% 25 76.35 1017.1
19 03:54 S 7 16.09 Overcast SCT040 BKN048 OVC080 25.6 18.3 64% 27 76.3 1016.5
19 02:54 Vrbl 11 16.09 Overcast SCT050 OVC070 26.7 18.3 60% 28 76.25 1015.7
19 01:54 S 19 16.09 A Few Clouds FEW100 26.7 17.8 58% 28 76.2 1015.0
19 00:54 S 22 G 41 16.09 Fair CLR 27.8 18.3 31.7 27.8 56% 29 76.15 1014.1
18 23:54 S 26 G 48 16.09 Overcast OVC080 28.3 18.9 57% 30 76.12 1014.0
18 22:54 S 9 16.09 Mostly Cloudy SCT060 BKN080 28.9 20 59% 31 76.1 1013.7
18 21:54 S 7 16.09 Fair CLR 28.9 19.4 57% 30 76.1 1013.4
18 20:54 S 17 16.09 Fair CLR 30 18.9 51% 31 75.97 1011.8
18 19:54 S 26 G 35 16.09 Fair CLR 30.6 18.9 50% 32 75.9 1010.9
18 18:54 S 24 G 46 16.09 Fair CLR 31.1 18.9 31.7 30 48% 32 75.87 1010.6
18 17:54 S 22 G 57 16.09 Fair CLR 31.7 19.4 48% 33 75.77 1009.2
18 16:54 S 30 G 52 16.09 Partly Cloudy SCT070 31.7 19.4 48% 33 75.84 1010.0
18 15:54 S 26 G 48 16.09 Overcast OVC060 30 19.4 53% 32 75.9 1010.8
18 14:54 S 28 G 54 16.09 Mostly Cloudy BKN049 31.1 20 52% 33 75.84 1010.1
18 13:54 S 39 G 59 16.09 Mostly Cloudy and Breezy BKN055 31.1 19.4 50% 33 75.84 1010.1
Date Time (cdt) Wind (kph) Vis. (km) Weather Sky Cond. Air Dwpt Max. Min. Relative Humidity Wind Chill (°C) Heat Index (°C) altimeter (cm) sea level (mb) 1 hr 3 hr 6 hr
6 hour
Temperature (ºC) Pressure Precipitation (cm)